[[{"header":{"parameterUnit":"m.s-1","parameterCategory":1,"la1":30.2991,"la2":30.254,"lo1":-89.0895,"lo2":-89.0444,"dy":0.0017,"dx":0.0017,"nx":28,"ny":28,"refTime":"2025-07-25T21:00:00:Z","depth":0,"parameterNumber":2,"parameterNumberName":"U-component_of_WINDS"},"data":[0,0,0,0,0,0,0,0,0,0,0,0,0,0,0,0,0,0,0,0,0,0,0,0,0,0,0,0,0,0,0,0,0,0,0,0,0,0,0,0,0,0,0,0,0,0,0,0,0,0,0,0,0,0,0,0,0,0,-3.5792,-3.5793,0,-3.5898,-3.5899,-3.59,-3.5956,-3.5957,-3.5957,-3.5957,-3.6058,-3.6061,-3.6063,0,0,0,0,0,0,0,0,0,0,0,0,0,-3.5631,-3.5634,-3.5792,-3.5793,-3.5795,-3.5898,-3.5899,-3.5901,-3.5956,-3.5957,-3.5957,-3.5957,-3.6058,-3.6061,-3.6064,0,0,0,0,0,0,0,0,0,0,0,0,0,-3.5715,-3.5635,-3.5792,-3.5835,-3.584,-3.5898,-3.5899,-3.5901,-3.5956,-3.5957,-3.5957,-3.5957,-3.6057,-3.606,-3.6064,-3.6085,0,0,-3.6076,-3.6078,0,0,0,0,0,0,0,0,-3.5711,-3.5721,-3.5827,-3.5832,-3.5838,-3.5914,-3.588,-3.5962,-3.5956,-3.5912,-3.5957,-3.5957,-3.601,-3.6018,-3.6037,-3.6089,-3.6094,-3.6076,-3.6079,-3.608,-3.6082,0,0,0,0,0,0,0,-3.5705,-3.5717,-3.5834,-3.5829,-3.5835,-3.5847,-3.5859,-3.5896,-3.5958,-3.5916,-3.592,-3.5932,-3.6013,-3.6033,-3.604,-3.6095,-3.6076,-3.608,-3.6082,-3.6084,-3.617,-3.617,0,0,0,0,0,0,-3.5693,-3.5712,-3.583,-3.5837,-3.5774,-3.585,-3.5863,-3.5889,-3.5958,-3.5969,-3.5932,-3.5935,-3.6026,-3.6035,-3.6043,-3.6072,-3.608,-3.6084,-3.6086,-3.617,-3.617,-3.617,0,0,0,0,0,0,-3.5689,-3.5703,-3.5826,-3.5776,-3.5792,-3.5853,-3.5881,-3.5891,-3.5912,-3.5971,-3.5981,-3.5942,-3.6027,-3.6038,-3.6075,-3.6077,-3.6086,-3.6089,-3.617,-3.617,-3.617,-3.613,0,0,0,0,0,0,-3.5684,-3.5701,-3.5711,-3.5776,-3.5795,-3.5857,-3.5881,-3.5893,-3.5919,-3.5924,-3.5983,-3.5992,-3.6028,-3.6068,-3.6078,-3.6082,-3.6092,-3.617,-3.617,-3.617,-3.6131,-3.6128,-3.6126,0,0,0,0,0,-3.5678,-3.5694,-3.5711,-3.5725,-3.5809,-3.5857,-3.5868,-3.591,-3.5919,-3.5929,-3.5966,-3.599,-3.6075,-3.6072,-3.6083,-3.6088,-3.617,-3.617,-3.617,-3.6132,-3.6129,-3.6126,0,0,0,0,0,0,-3.5625,-3.5703,-3.5723,-3.576,-3.5802,-3.5867,-3.588,-3.5905,-3.5943,-3.5945,-3.5994,-3.6007,-3.6039,-3.6067,-3.6062,-3.6112,-3.6125,-3.6127,-3.6092,-3.6089,-3.6087,-3.6079,-3.6096,0,0,0,0,0,-3.5618,-3.5653,-3.5719,-3.5745,-3.5765,-3.5819,-3.5841,-3.5871,-3.5915,-3.5932,-3.5972,-3.6012,-3.6048,-3.607,-3.6106,-3.6135,-3.6149,-3.6144,-3.6142,-3.6139,-3.614,-3.6158,-3.6157,-3.6169,-3.6169,-3.6169,0,0,-3.5603,-3.565,-3.5669,-3.5735,-3.5771,-3.5805,-3.5833,-3.5867,-3.5892,-3.5936,-3.5974,-3.6005,-3.6053,-3.6086,-3.6102,-3.611,-3.614,-3.6139,-3.6137,-3.6139,-3.6158,-3.6156,-3.6155,-3.6169,-3.6169,-3.6169,0,0,-3.5594,-3.5633,-3.566,-3.5695,-3.575,-3.5786,-3.5792,-3.5853,-3.5876,-3.5916,-3.595,-3.5979,-3.6039,-3.6072,-3.6097,-3.61,-3.6124,-3.611,-3.6096,-3.6113,-3.6112,-3.6111,-3.6112,-3.6112,-3.6111,-3.6111,-3.6111,0,-3.5567,-3.5621,-3.5669,-3.5702,-3.573,-3.5775,-3.5801,-3.5833,-3.5895,-3.5912,-3.5921,-3.5999,-3.6034,-3.6075,-3.6076,-3.6095,-3.6102,-3.6104,-3.6109,-3.6108,-3.6108,-3.611,-3.611,-3.6109,-3.611,-3.611,-3.611,0,-3.5586,-3.5623,-3.5638,-3.57,-3.573,-3.5758,-3.5809,-3.5833,-3.586,-3.5894,-3.5933,-3.5977,-3.6023,-3.6035,-3.606,-3.608,-3.6083,-3.61,-3.6114,-3.6104,-3.6107,-3.6108,-3.6107,-3.6107,-3.6108,-3.6108,0,0,-3.5545,-3.5635,-3.5639,-3.5668,-3.5732,-3.5761,-3.5791,-3.5839,-3.5858,-3.59,-3.5926,-3.5976,-3.5993,-3.602,-3.605,-3.6064,-3.6064,-3.6079,-3.6081,-3.6074,-3.6088,-3.6075,-3.6075,-3.608,-3.6081,-3.6081,-3.6084,0,-3.5544,-3.5604,-3.5648,-3.569,-3.5724,-3.5768,-3.5795,-3.5836,-3.5869,-3.5901,-3.5936,-3.5972,-3.599,-3.6007,-3.6024,-3.6061,-3.6067,-3.6061,-3.6103,-3.6104,-3.609,-3.6077,-3.6063,-3.6064,-3.6085,-3.6085,-3.6086,0,-3.555,-3.5593,-3.564,-3.5701,-3.5717,-3.5741,-3.5788,-3.5819,-3.5866,-3.5889,-3.5921,-3.5952,-3.5984,-3.5996,-3.6041,-3.6035,-3.6055,-3.6076,-3.6077,-3.6082,-3.6094,-3.6081,-3.6065,-3.6065,-3.6087,-3.6087,-3.6087,0,-3.5515,-3.5584,-3.5621,-3.5645,-3.5717,-3.5733,-3.5763,-3.5811,-3.5837,-3.5878,-3.5895,-3.5937,-3.5961,-3.5992,-3.6033,-3.6038,-3.6074,-3.6089,-3.6092,-3.6091,-3.6097,-3.6096,-3.6084,-3.6111,-3.6111,-3.6111,-3.6111,0,-3.5509,-3.5535,-3.5607,-3.5629,-3.566,-3.571,-3.5738,-3.5772,-3.5814,-3.5843,-3.5882,-3.5908,-3.5961,-3.5992,-3.6024,-3.6057,-3.6066,-3.6085,-3.6093,-3.6081,-3.6079,-3.6094,-3.6095,-3.6111,-3.6111,-3.6111,-3.6111,0,-3.5474,-3.5523,-3.5566,-3.5633,-3.565,-3.5669,-3.5725,-3.5748,-3.5784,-3.5819,-3.583,-3.5885,-3.5925,-3.5969,-3.6022,-3.6044,-3.6073,-3.6085,-3.6058,-3.6063,-3.6064,-3.6063,-3.6061,-3.6063,-3.6088,-3.6088,-3.6087,0,-3.5466,-3.5488,-3.5558,-3.5581,-3.5612,-3.5648,-3.5676,-3.5726,-3.5752,-3.5808,-3.5824,-3.5867,-3.5904,-3.5964,-3.6007,-3.6048,-3.6061,-3.6058,-3.6067,-3.6055,-3.606,-3.6059,-3.6061,-3.6054,-3.6054,-3.6053,-3.6053,0,-3.5448,-3.5471,-3.5511,-3.5559,-3.5592,-3.5631,-3.5672,-3.5688,-3.5746,-3.5774,-3.5816,-3.5845,-3.5901,-3.5942,-3.5989,-3.6018,-3.6044,-3.605,-3.6053,-3.6041,-3.6024,-3.6033,-3.605,-3.605,-3.605,-3.605,-3.605,-3.605,-3.5426,-3.5448,-3.5501,-3.5543,-3.558,-3.5618,-3.5643,-3.5683,-3.572,-3.5771,-3.5798,-3.5839,-3.5886,-3.5952,-3.598,-3.6012,-3.6021,-3.6025,-3.6026,-3.6026,-3.6023,-3.602,-3.602,-3.6021,-3.6021,-3.6021,-3.6021,0,-3.5409,-3.5446,-3.5485,-3.5542,-3.5576,-3.5601,-3.5648,-3.5674,-3.5711,-3.5753,-3.579,-3.5838,-3.5879,-3.5926,-3.597,-3.5986,-3.5999,-3.5996,-3.5994,-3.6001,-3.6012,-3.6006,-3.5984,-3.5984,-3.5984,-3.5984,-3.5984,-3.5984,-3.5404,-3.5442,-3.5472,-3.5529,-3.5565,-3.5608,-3.5633,-3.5667,-3.5702,-3.5755,-3.579,-3.5822,-3.5866,-3.5914,-3.5952,-3.5965,-3.5978,-3.5971,-3.5987,-3.5997,-3.6,-3.6003,-3.5997,-3.5974,-3.5974,-3.5973,-3.5973,-3.5973]},{"header":{"parameterUnit":"m.s-1","parameterCategory":1,"la1":30.2991,"la2":30.254,"lo1":-89.0895,"lo2":-89.0444,"dy":0.0017,"dx":0.0017,"nx":28,"ny":28,"refTime":"2025-07-25T21:00:00:Z","depth":0,"parameterNumber":3,"parameterNumberName":"V-component_of_WINDS"},"data":[0,0,0,0,0,0,0,0,0,0,0,0,0,0,0,0,0,0,0,0,0,0,0,0,0,0,0,0,0,0,0,0,0,0,0,0,0,0,0,0,0,0,0,0,0,0,0,0,0,0,0,0,0,0,0,0,0,0,5.2172,5.2171,0,5.2161,5.2161,5.216,5.2094,5.2093,5.2091,5.209,5.2079,5.208,5.2081,0,0,0,0,0,0,0,0,0,0,0,0,0,5.2137,5.2138,5.2172,5.2171,5.2171,5.2161,5.2161,5.216,5.2095,5.2093,5.2091,5.2089,5.2079,5.208,5.2081,0,0,0,0,0,0,0,0,0,0,0,0,0,5.2142,5.2139,5.2172,5.2137,5.2134,5.2161,5.2161,5.216,5.2095,5.2093,5.209,5.2088,5.2078,5.208,5.2082,5.2141,0,0,5.2087,5.2088,0,0,0,0,0,0,0,0,5.2142,5.2143,5.2142,5.214,5.2136,5.2126,5.2144,5.2154,5.2096,5.211,5.209,5.2087,5.2097,5.2097,5.21,5.214,5.214,5.2087,5.2088,5.2089,5.209,0,0,0,0,0,0,0,5.2142,5.2144,5.2167,5.2143,5.2139,5.2123,5.2121,5.2146,5.2117,5.2109,5.2104,5.2103,5.2095,5.2099,5.2099,5.2139,5.2087,5.2089,5.209,5.2091,5.223,5.2232,0,0,0,0,0,0,5.2146,5.2144,5.2168,5.2167,5.2133,5.2126,5.2123,5.2132,5.2116,5.2112,5.2105,5.21,5.2097,5.2097,5.2099,5.2168,5.2089,5.2091,5.2092,5.2227,5.223,5.2233,0,0,0,0,0,0,5.2146,5.2149,5.2168,5.2154,5.2155,5.2129,5.2139,5.2133,5.2137,5.2114,5.2109,5.2115,5.2095,5.2096,5.2131,5.2167,5.2092,5.2093,5.2224,5.2228,5.2232,5.2307,0,0,0,0,0,0,5.2145,5.2149,5.217,5.2155,5.2156,5.22,5.2141,5.2135,5.214,5.2133,5.2121,5.2117,5.2093,5.2129,5.2133,5.2168,5.2095,5.2221,5.2226,5.223,5.2301,5.2313,5.2323,0,0,0,0,0,5.2144,5.2192,5.2172,5.2175,5.2183,5.2202,5.2203,5.2174,5.2143,5.2165,5.2151,5.2117,5.2162,5.2133,5.2137,5.2173,5.2218,5.2224,5.223,5.2296,5.231,5.2322,0,0,0,0,0,0,5.2211,5.2189,5.2167,5.2211,5.2209,5.2191,5.2218,5.219,5.2197,5.2191,5.2155,5.2153,5.2194,5.2187,5.2154,5.223,5.2185,5.2192,5.2233,5.2247,5.2258,5.2259,5.2096,0,0,0,0,0,5.2232,5.2249,5.2229,5.227,5.227,5.2245,5.2252,5.223,5.2227,5.2226,5.2214,5.2212,5.2226,5.2236,5.2247,5.23,5.2297,5.2327,5.2338,5.2347,5.2353,5.2382,5.2396,5.2252,5.2252,5.2252,0,0,5.2273,5.2263,5.2276,5.2283,5.2279,5.2299,5.2244,5.2267,5.2282,5.2229,5.2262,5.2254,5.225,5.2294,5.2313,5.2289,5.2392,5.2354,5.2361,5.2363,5.239,5.2403,5.2415,5.2256,5.2256,5.2255,0,0,5.236,5.2353,5.2387,5.2385,5.238,5.2363,5.2372,5.2358,5.2351,5.2383,5.2345,5.2362,5.2386,5.2386,5.2389,5.2477,5.2447,5.2482,5.2539,5.2568,5.2579,5.2589,5.2622,5.2634,5.2489,5.2489,5.2489,0,5.2412,5.244,5.2409,5.2435,5.244,5.2394,5.2429,5.2428,5.2427,5.2432,5.2406,5.2437,5.2431,5.2475,5.2497,5.2501,5.251,5.2483,5.258,5.259,5.2598,5.263,5.2642,5.2493,5.2493,5.2492,5.2492,0,5.2506,5.2526,5.2554,5.2555,5.2563,5.2594,5.2568,5.258,5.2558,5.2545,5.2579,5.2571,5.258,5.2589,5.2568,5.2632,5.2617,5.2586,5.254,5.2617,5.2646,5.2657,5.2499,5.2498,5.2496,5.2495,0,0,5.2633,5.2618,5.2629,5.263,5.2622,5.2637,5.2667,5.2677,5.2688,5.269,5.2714,5.2737,5.2709,5.2712,5.269,5.2715,5.2788,5.2681,5.2681,5.2703,5.286,5.2884,5.2899,5.2768,5.2771,5.2772,5.2861,0,5.2717,5.2766,5.274,5.2792,5.2812,5.277,5.2795,5.2794,5.2782,5.2797,5.2784,5.2802,5.2762,5.2764,5.2787,5.2775,5.282,5.2768,5.2792,5.2793,5.2795,5.2913,5.2939,5.3023,5.2872,5.2874,5.2875,0,5.2821,5.2828,5.2883,5.2874,5.2881,5.2904,5.2912,5.2927,5.2925,5.2915,5.292,5.2893,5.2922,5.2876,5.2916,5.2882,5.289,5.2886,5.2888,5.289,5.2839,5.292,5.3049,5.3062,5.2892,5.2891,5.2889,0,5.2911,5.2934,5.297,5.2972,5.2961,5.2979,5.2976,5.2971,5.298,5.2987,5.2992,5.3003,5.3009,5.3018,5.2995,5.2963,5.3039,5.299,5.3032,5.3033,5.3051,5.305,5.3184,5.3055,5.3054,5.3054,5.3054,0,5.3008,5.3044,5.3011,5.3033,5.3073,5.3042,5.3082,5.3074,5.3071,5.3092,5.3056,5.3076,5.3044,5.3062,5.3044,5.3081,5.3084,5.3077,5.3072,5.3081,5.3082,5.3087,5.3081,5.3057,5.3057,5.3056,5.3056,0,5.3115,5.3094,5.3132,5.3119,5.3117,5.3146,5.3136,5.3157,5.3143,5.317,5.3175,5.3153,5.3172,5.315,5.3167,5.3155,5.3206,5.3192,5.3207,5.3203,5.3247,5.3244,5.339,5.3408,5.3266,5.3267,5.3268,0,5.3179,5.3206,5.3197,5.3208,5.3207,5.3226,5.3234,5.3206,5.3217,5.3218,5.3239,5.3255,5.3266,5.3299,5.3285,5.3299,5.3285,5.3336,5.3287,5.3296,5.3288,5.3287,5.3291,5.3346,5.3348,5.3349,5.335,0,5.3296,5.3285,5.3298,5.3309,5.3321,5.3328,5.3332,5.3344,5.3314,5.3328,5.3348,5.3357,5.3375,5.3392,5.3401,5.3398,5.337,5.3365,5.3376,5.3386,5.3395,5.3392,5.3235,5.3362,5.3361,5.336,5.3359,5.3359,5.3385,5.3407,5.3405,5.3422,5.3422,5.3428,5.3447,5.3436,5.3452,5.3464,5.3447,5.3471,5.347,5.348,5.3481,5.35,5.3479,5.3494,5.3498,5.3503,5.351,5.3391,5.3502,5.3501,5.3501,5.3501,5.35,0,5.3501,5.3498,5.3514,5.3521,5.3535,5.3507,5.3511,5.3525,5.3547,5.3548,5.356,5.3584,5.36,5.3588,5.3603,5.3621,5.3608,5.3626,5.3625,5.3625,5.3527,5.3517,5.3636,5.3636,5.3635,5.3635,5.3635,5.3635,5.3563,5.3601,5.3589,5.3627,5.3623,5.3647,5.3652,5.3657,5.3658,5.3686,5.37,5.3692,5.3689,5.3703,5.3717,5.3713,5.3721,5.3743,5.3735,5.3645,5.3631,5.3619,5.3609,5.3745,5.3745,5.3831,5.3832,5.3833]}]]